EHI
0 3 7 9 9 10 11 11 10 11 12 12 12 11 9 7 7 7 8 6 5 4 4 4 4 3 4 4 3 2 2 2 1 0 1 1 0 1 2 2 1 0 0
2 4 7 8 10 10 11 11 10 10 11 11 10 9 7 6 6 6 7 7 6 4 4 4 3 3 3 3 2 2 2 1 1 1 2 1 0 0 1 1 0 0 0
6 7 7 9 10 11 10 10 11 10 9 9 9 7 5 5 6 5 6 6 6 4 3 3 3 3 3 3 3 3 3 3 2 2 2 1 0 0 0 0 0 0 0
8 7 7 10 11 10 9 9 10 8 7 8 8 7 4 4 4 3 3 4 4 4 3 3 3 3 3 4 5 6 5 4 3 1 1 0 0 0 0 0 0 0 0
6 5 6 9 10 9 8 8 7 7 6 7 9 8 5 4 4 3 2 2 3 4 4 4 3 3 4 6 8 7 5 3 2 0 0 0 0 0 0 0 0 0 0
4 3 4 7 9 8 7 6 6 6 6 7 9 10 8 7 6 5 3 2 3 5 6 6 5 5 5 7 9 8 5 3 2 1 0 0 0 0 0 0 0 0 0
2 2 3 7 9 9 8 7 7 6 7 8 10 11 10 9 9 8 6 5 4 5 7 8 8 7 6 7 8 7 5 3 2 1 0 0 0 0 0 0 0 0 0
1 1 2 6 10 11 10 9 7 6 6 8 10 10 9 9 9 8 7 5 5 4 6 8 9 8 7 7 8 8 5 3 2 1 0 0 1 1 1 1 0 0 0
0 0 1 4 8 10 10 9 6 5 5 5 7 7 6 7 8 8 6 4 4 4 4 6 8 8 8 8 9 8 6 4 2 1 0 1 2 4 5 3 2 0 0
0 0 0 2 4 6 7 6 5 4 3 4 5 5 4 4 6 6 4 3 3 3 3 5 6 6 7 7 7 7 6 4 2 1 0 1 3 6 8 7 5 3 1
1 1 0 1 1 2 4 5 4 3 3 3 3 3 3 2 2 2 1 1 2 2 3 4 4 4 5 4 4 4 4 3 1 0 0 0 3 6 7 8 9 6 3
3 2 1 0 0 1 2 3 3 3 3 2 1 1 1 0 0 0 0 0 1 2 2 2 2 2 2 1 1 1 1 1 0 0 0 1 3 4 5 7 8 8 5
5 5 3 1 0 0 1 3 3 2 1 1 0 0 0 0 0 0 0 0 1 1 1 1 1 1 0 0 0 0 0 0 0 0 0 1 2 3 4 5 7 7 7
6 6 4 2 1 1 1 2 2 1 0 0 0 0 0 0 0 0 0 0 0 1 1 0 0 0 0 0 0 0 0 0 0 0 0 1 1 2 5 6 7 7 7
5 4 3 2 2 2 2 2 2 1 0 0 0 0 0 0 0 0 0 0 0 1 2 1 0 0 0 0 0 0 0 0 0 0 0 0 0 2 6 8 8 8 9
2 1 1 1 2 2 2 2 2 1 0 0 0 0 0 0 0 0 0 0 0 1 2 1 0 0 0 0 0 0 0 0 0 0 0 0 0 2 6 8 8 9 11
0 0 0 0 1 1 1 1 1 0 0 0 0 0 0 0 0 0 0 0 0 0 1 1 0 0 0 0 0 1 1 1 0 0 0 1 1 1 4 6 7 8 10
0 0 0 0 0 0 0 0 0 0 0 0 0 0 0 0 0 0 0 0 0 0 0 0 0 0 0 0 0 1 1 1 0 0 0 1 1 1 2 3 4 5 6
0 0 0 0 0 0 0 0 0 0 0 0 0 0 0 0 0 0 0 0 0 0 0 0 0 0 0 0 0 0 0 0 0 0 0 1 1 0 0 1 2 2 2
1 1 0 0 0 0 0 0 0 0 0 0 0 0 0 0 0 0 0 0 0 0 0 0 0 0 0 0 0 0 0 0 0 0 0 0 0 0 0 0 0 0 0
2 1 0 0 0 0 0 0 0 0 0 0 0 0 0 0 0 0 0 0 0 0 0 0 0 0 0 0 0 0 0 0 0 0 0 0 0 0 0 0 0 0 0
2 1 0 0 0 0 0 0 0 0 0 0 0 0 0 0 0 0 0 0 0 0 0 0 0 0 0 0 0 0 0 0 0 0 0 0 0 0 0 0 0 0 0
1 0 0 0 0 0 0 0 0 0 0 0 0 0 0 0 0 0 0 0 0 0 0 0 0 0 0 0 0 0 0 0 0 0 0 0 0 0 0 0 0 0 0
2 1 0 0 0 0 0 0 0 0 0 0 0 0 0 0 0 0 0 0 0 0 0 0 0 0 0 0 0 0 0 0 0 0 0 0 0 0 0 0 0 0 0
2 1 0 0 0 0 1 1 1 0 0 0 0 0 0 0 0 0 0 0 0 0 0 0 1 1 0 0 0 0 0 0 0 0 0 0 0 0 0 0 0 0 0
3 2 1 1 1 0 1 2 1 0 0 0 0 0 0 0 0 0 0 0 0 0 0 0 1 1 1 0 0 0 0 0 0 0 0 0 0 0 0 0 0 0 0
Wind_Speed
1 1 7 8 9 10 10 10 10 10 11 12 12 12 12 13 14 14 14 13 13 12 12 11 11 11 11 11 11 11 10 10 10 10 10 10 10 10 10 10 9 7 10
2 3 8 8 9 9 10 10 9 10 11 11 11 11 11 13 13 13 13 12 12 11 11 10 10 10 10 10 10 10 10 10 10 10 9 9 9 9 9 9 9 6 10
4 4 6 9 9 9 9 9 9 10 10 10 10 10 11 12 13 13 12 12 11 10 10 10 10 10 9 9 9 9 9 9 9 9 8 5 6 8 8 8 8 9 9
5 4 5 9 9 9 9 9 9 9 9 9 10 10 10 11 11 12 11 11 11 10 9 9 9 9 8 8 8 8 8 8 8 8 4 4 4 7 7 8 8 9 9
4 3 5 9 9 8 8 8 8 8 8 9 9 9 9 10 10 10 10 10 10 9 9 9 8 8 8 7 8 8 8 7 7 6 4 3 2 6 7 7 8 8 8
4 3 5 9 9 8 8 7 7 7 7 7 8 9 9 9 9 9 9 9 9 9 8 8 8 8 7 7 7 7 7 7 5 3 3 3 3 5 7 7 8 8 8
3 2 4 8 8 8 7 7 7 6 6 6 6 7 8 8 8 8 8 8 8 7 7 7 7 7 7 7 7 7 7 7 4 3 3 3 4 5 6 7 7 7 7
3 3 3 6 7 6 6 6 6 6 6 5 5 6 7 8 7 7 7 7 7 7 6 6 6 6 6 6 6 6 6 6 4 4 4 4 6 6 7 7 7 8 8
3 3 2 2 3 5 5 5 5 5 4 4 4 5 7 7 6 6 6 7 6 6 5 5 5 6 6 5 5 5 6 6 4 3 4 4 6 8 8 8 8 8 8
4 3 3 3 2 1 1 3 4 4 4 3 3 4 5 6 5 5 5 5 6 5 5 5 5 5 5 5 5 6 5 4 3 3 3 4 8 9 8 8 8 8 8
3 2 2 2 2 2 1 1 1 2 2 1 1 1 2 1 2 2 4 5 6 5 4 4 4 4 5 5 5 6 4 2 3 3 3 5 8 9 9 8 9 8 8
1 1 1 1 2 1 1 1 1 1 1 1 1 1 1 0 1 2 4 5 5 4 3 4 4 4 3 1 2 3 2 3 3 3 3 7 8 9 9 9 9 9 8
1 1 1 1 1 0 1 1 1 1 1 1 1 1 0 1 0 1 1 2 2 2 1 2 2 1 1 1 1 2 3 3 2 3 4 7 8 8 9 9 9 9 8
2 1 0 1 1 1 1 0 0 0 0 0 1 0 1 0 0 0 0 0 0 0 1 1 1 1 1 2 3 3 3 2 2 3 3 7 7 8 9 9 9 9 8
1 0 0 0 0 0 0 1 0 0 0 0 0 0 1 1 1 0 0 0 0 0 1 1 1 1 1 2 2 3 3 3 4 4 3 6 7 8 8 8 8 9 9
1 1 0 1 1 1 1 1 0 1 1 0 1 1 1 1 1 1 1 1 1 1 1 1 2 2 2 2 2 2 3 3 3 3 3 4 7 7 7 7 8 8 9
1 1 1 1 1 0 0 1 0 1 0 0 1 1 1 1 1 1 1 1 1 1 1 1 1 1 2 2 2 2 2 2 2 3 3 2 3 5 6 6 7 8 8
1 0 1 0 1 0 0 0 0 0 0 0 0 0 0 1 1 1 1 1 1 0 0 1 1 1 1 1 1 1 1 1 1 2 2 1 1 2 3 5 6 6 8
1 1 0 1 1 0 1 1 1 1 0 0 0 0 0 0 1 1 1 1 0 0 0 1 0 0 1 1 1 1 1 1 1 1 1 1 1 1 1 2 4 5 6
1 1 1 0 0 0 1 1 1 1 1 1 0 0 0 0 1 1 0 0 0 1 0 1 0 1 0 1 0 0 0 1 1 1 1 1 1 2 2 2 2 3 4
0 1 1 1 1 1 1 1 1 1 1 1 1 1 1 1 0 1 0 1 1 0 0 1 1 0 1 1 1 1 1 0 1 1 1 1 1 2 2 2 1 1 2
1 1 1 1 1 1 0 1 1 0 0 0 1 1 1 1 0 0 0 0 0 1 1 1 1 1 0 1 1 1 1 1 1 0 1 1 1 1 2 2 2 2 1
1 1 1 0 0 1 1 1 1 1 1 2 2 2 1 1 1 1 1 1 1 1 0 0 0 1 0 0 1 1 1 1 1 1 1 1 1 1 2 1 2 2 2
2 1 0 0 0 1 1 1 1 1 0 1 1 1 2 2 1 1 1 1 1 1 0 0 0 0 1 0 0 0 1 1 1 1 1 1 1 1 1 1 2 2 2
2 2 1 1 1 1 1 1 1 0 0 0 1 2 2 2 2 1 1 1 1 1 1 0 0 1 1 1 1 0 1 1 1 1 1 1 1 1 1 1 1 2 2
1 1 1 1 0 1 1 1 1 1 1 1 1 1 1 1 2 2 2 1 1 1 0 0 0 1 1 1 1 1 1 1 1 1 1 1 2 2 1 1 1 1 2
Wind_Direction
188 166 143 134 132 130 128 125 121 120 122 126 130 132 134 138 141 143 142 142 141 140 140 140 140 140 139 139 138 138 137 135 132 134 135 134 133 133 133 132 130 128 128
156 152 143 136 134 130 126 124 123 124 122 124 128 129 132 136 140 143 141 139 141 142 141 142 143 141 140 139 140 140 139 137 138 139 138 135 134 134 135 135 136 134 135
123 131 137 133 132 129 126 124 124 126 126 126 128 128 131 137 140 142 143 143 143 142 143 143 144 144 143 144 144 143 142 141 142 140 135 126 134 139 141 144 143 140 140
124 123 134 134 133 130 126 122 123 126 129 128 129 131 131 134 139 144 147 148 148 148 149 147 147 149 149 150 149 146 146 147 147 144 131 129 143 149 150 148 147 147 146
117 120 136 136 134 130 126 125 124 126 128 129 132 134 136 139 143 146 149 149 151 154 154 155 155 153 154 154 154 151 150 151 152 145 137 136 145 161 160 156 155 154 153
111 119 141 137 137 133 130 128 127 128 128 128 134 139 139 143 144 144 150 152 157 159 159 161 161 158 161 160 158 158 156 156 152 143 146 154 162 175 172 170 167 164 162
111 114 140 139 138 136 134 133 133 130 129 132 141 149 150 149 147 148 151 159 165 166 165 165 166 167 169 166 167 168 165 163 154 154 161 169 183 191 185 178 176 173 169
107 100 116 134 136 134 135 138 136 131 127 135 148 158 161 157 158 158 162 166 171 175 176 178 180 182 181 175 175 176 175 175 164 166 177 185 195 195 190 185 182 181 178
79 77 70 93 124 137 139 143 138 134 134 145 156 161 166 168 169 170 170 173 177 183 190 193 193 189 188 184 186 191 189 184 164 170 187 192 203 203 199 195 191 189 188
73 62 49 50 50 60 124 143 144 143 139 143 152 165 174 178 178 179 178 183 191 196 202 206 205 205 198 193 200 204 199 192 177 181 190 198 206 207 205 202 197 194 193
81 56 54 50 44 39 49 139 135 133 129 146 146 192 188 172 174 184 199 206 207 207 208 210 215 221 216 209 214 215 209 187 177 190 195 208 210 210 209 207 203 200 198
129 101 74 59 55 41 54 39 35 42 42 12 15 334 6 81 200 207 220 223 224 221 220 221 227 230 230 220 226 227 201 196 192 201 209 217 216 213 212 211 208 207 204
153 124 78 74 67 70 15 36 30 26 24 355 341 346 26 30 323 258 243 237 235 246 267 253 256 252 222 213 218 214 205 206 205 214 220 221 219 219 218 215 212 211 207
126 113 46 58 46 357 10 357 40 26 350 336 307 265 134 125 353 344 308 299 293 281 279 289 269 259 245 236 227 224 219 208 211 216 222 222 221 221 222 216 212 210 208
118 127 244 171 181 250 54 260 244 267 237 266 294 279 172 170 189 182 294 277 254 235 235 272 272 268 261 253 235 225 226 218 215 214 222 230 231 225 226 216 210 213 211
160 227 256 212 232 209 218 230 253 247 240 238 257 247 192 180 179 176 227 257 251 233 223 233 248 252 258 248 242 232 227 225 222 217 221 234 239 233 225 218 212 212 211
182 197 217 198 67 62 282 262 268 259 227 231 257 267 195 175 176 181 218 251 257 245 238 234 258 244 240 230 230 224 216 224 229 227 226 223 233 231 224 220 217 217 216
145 133 287 335 56 23 339 304 311 325 42 273 270 268 200 174 170 179 212 250 259 240 226 236 260 241 237 222 225 235 218 205 212 214 213 208 208 222 225 220 217 219 219
187 187 232 357 59 4 342 355 355 2 1 301 325 344 316 205 165 164 217 257 227 138 2 273 324 216 210 212 209 201 218 219 210 208 207 205 198 197 208 220 209 211 215
190 173 172 98 28 16 24 14 12 9 355 4 336 326 332 344 123 143 185 333 60 91 41 24 5 10 160 187 190 88 210 212 176 186 203 199 197 203 207 218 210 214 203
75 124 119 73 11 36 31 355 343 320 328 356 341 336 336 356 100 132 326 18 45 73 73 62 62 34 49 88 92 38 11 148 167 179 189 195 213 216 202 203 196 203 213
139 120 87 47 16 22 342 287 249 247 288 336 351 4 11 32 57 145 96 57 78 71 48 55 72 69 60 85 104 99 20 352 342 259 192 198 218 217 215 208 198 197 205
182 196 208 230 32 9 10 30 25 34 24 22 13 6 1 45 60 55 40 53 63 101 195 186 94 130 122 40 73 133 145 233 318 332 289 250 227 213 222 207 203 204 202
205 192 181 316 18 37 69 70 92 104 4 320 350 359 1 28 48 52 41 47 55 63 98 252 116 114 122 155 358 72 146 158 165 306 316 301 249 218 218 218 220 218 215
192 161 136 51 1 17 64 95 101 123 213 9 33 25 17 9 16 27 38 44 39 27 359 358 84 127 144 162 172 160 97 73 109 173 275 316 329 282 240 235 225 228 222
163 140 123 120 38 22 56 67 80 120 122 85 36 10 5 360 5 14 21 14 6 11 329 298 185 170 168 167 161 137 143 150 181 176 212 284 302 300 279 243 234 240 233